Time,TemperatureF,DewpointF,PressureIn,WindDirection,WindDirectionDegrees,WindSpeedMPH,WindSpeedGustMPH,Humidity,HourlyPrecipIn,Conditions,Clouds,dailyrainin,SolarRadiationWatts/m^2,SoftwareType,DateUTC
2013-02-09 00:00:00,25.2,22.4,30.22,SSE,168,12.0,20.0,89,0.00,,---,0.00,0.00,VWS V14.01,2013-02-09 06:00:00,
2013-02-09 00:05:00,25.2,22.4,30.22,SSE,168,12.0,12.0,89,0.00,,---,0.00,0.00,VWS V14.01,2013-02-09 06:05:00,
2013-02-09 00:10:00,25.2,22.4,30.22,SSE,165,13.0,22.0,89,0.00,,---,0.00,0.00,VWS V14.01,2013-02-09 06:10:00,
2013-02-09 00:15:00,25.2,22.4,30.21,SSE,165,15.0,22.0,89,0.00,,---,0.00,0.00,VWS V14.01,2013-02-09 06:15:00,
2013-02-09 00:20:00,25.2,22.4,30.22,SSE,158,14.0,18.0,89,0.00,,---,0.00,0.00,VWS V14.01,2013-02-09 06:20:00,
2013-02-09 00:25:00,25.2,22.4,30.21,SSE,166,20.0,24.0,89,0.00,,---,0.00,0.00,VWS V14.01,2013-02-09 06:25:00,
2013-02-09 00:30:00,25.1,22.3,30.21,SSE,161,14.0,24.0,89,0.00,,---,0.00,0.00,VWS V14.01,2013-02-09 06:30:00,
2013-02-09 00:35:00,25.2,22.4,30.21,South,176,17.0,20.0,89,0.00,,---,0.00,0.00,VWS V14.01,2013-02-09 06:35:00,
2013-02-09 00:40:00,25.2,22.4,30.21,SSE,166,13.0,23.0,89,0.00,,---,0.00,0.00,VWS V14.01,2013-02-09 06:40:00,
2013-02-09 00:45:00,25.3,22.5,30.20,SSE,163,13.0,25.0,89,0.00,,---,0.00,0.00,VWS V14.01,2013-02-09 06:45:00,
2013-02-09 00:50:00,25.3,22.5,30.20,SSE,150,14.0,21.0,89,0.00,,---,0.00,0.00,VWS V14.01,2013-02-09 06:50:00,
2013-02-09 00:55:00,25.3,22.5,30.19,SSE,168,16.0,24.0,89,0.00,,---,0.00,0.00,VWS V14.01,2013-02-09 06:55:00,
2013-02-09 01:00:00,25.3,22.5,30.19,SSE,165,19.0,24.0,89,0.00,,---,0.00,0.00,VWS V14.01,2013-02-09 07:00:00,
2013-02-09 01:05:00,25.3,22.5,30.19,SSE,165,12.0,17.0,89,0.00,,---,0.00,0.00,VWS V14.01,2013-02-09 07:05:00,
2013-02-09 01:10:00,25.3,22.5,30.19,South,169,17.0,22.0,89,0.00,,---,0.00,0.00,VWS V14.01,2013-02-09 07:10:00,
2013-02-09 01:15:00,25.3,22.5,30.20,South,171,14.0,22.0,89,0.00,,---,0.00,0.00,VWS V14.01,2013-02-09 07:15:00,
2013-02-09 01:20:00,25.3,22.5,30.19,South,169,12.0,17.0,89,0.00,,---,0.00,0.00,VWS V14.01,2013-02-09 07:20:00,
2013-02-09 01:25:00,25.3,22.5,30.20,SSE,167,14.0,22.0,89,0.00,,---,0.00,0.00,VWS V14.01,2013-02-09 07:25:00,
2013-02-09 01:30:00,25.3,22.5,30.19,South,176,12.0,22.0,89,0.00,,---,0.00,0.00,VWS V14.01,2013-02-09 07:30:00,
2013-02-09 01:35:00,25.2,22.4,30.19,SSE,166,12.0,15.0,89,0.00,,---,0.00,0.00,VWS V14.01,2013-02-09 07:35:00,
2013-02-09 01:40:00,25.2,22.4,30.19,SSE,155,16.0,16.0,89,0.00,,---,0.00,0.00,VWS V14.01,2013-02-09 07:40:00,
2013-02-09 01:45:00,25.2,22.7,30.18,South,181,17.0,24.0,90,0.00,,---,0.00,0.00,VWS V14.01,2013-02-09 07:45:00,
2013-02-09 01:50:00,25.1,22.3,30.18,SSE,155,17.0,25.0,89,0.00,,---,0.00,0.00,VWS V14.01,2013-02-09 07:50:00,
2013-02-09 01:55:00,25.1,22.3,30.18,SSE,152,14.0,25.0,89,0.00,,---,0.00,0.00,VWS V14.01,2013-02-09 07:55:00,
2013-02-09 02:00:00,25.1,22.6,30.17,SE,146,15.0,25.0,90,0.00,,---,0.00,0.00,VWS V14.01,2013-02-09 08:00:00,
2013-02-09 02:05:00,25.1,22.3,30.16,SSE,157,16.0,21.0,89,0.00,,---,0.00,0.00,VWS V14.01,2013-02-09 08:05:00,
2013-02-09 02:10:00,25.1,22.3,30.17,SSE,156,18.0,25.0,89,0.00,,---,0.00,0.00,VWS V14.01,2013-02-09 08:10:00,
2013-02-09 02:15:00,25.1,22.6,30.17,South,169,18.0,25.0,90,0.00,,---,0.00,0.00,VWS V14.01,2013-02-09 08:15:00,
2013-02-09 02:20:00,25.1,22.6,30.17,SSE,150,13.0,23.0,90,0.00,,---,0.00,0.00,VWS V14.01,2013-02-09 08:20:00,
2013-02-09 02:25:00,25.0,22.5,30.16,SSE,168,17.0,23.0,90,0.00,,---,0.00,0.00,VWS V14.01,2013-02-09 08:25:00,
2013-02-09 02:30:00,25.1,22.6,30.16,SE,137,20.0,25.0,90,0.00,,---,0.00,0.00,VWS V14.01,2013-02-09 08:30:00,
2013-02-09 02:35:00,25.2,22.7,30.16,SSE,148,25.0,25.0,90,0.00,,---,0.00,0.00,VWS V14.01,2013-02-09 08:35:00,
2013-02-09 02:40:00,25.2,22.7,30.16,SSE,159,16.0,25.0,90,0.00,,---,0.00,0.00,VWS V14.01,2013-02-09 08:40:00,
2013-02-09 02:45:00,25.2,22.7,30.15,SSE,157,19.0,25.0,90,0.00,,---,0.00,0.00,VWS V14.01,2013-02-09 08:45:00,
2013-02-09 02:50:00,25.2,22.7,30.15,SSE,154,17.0,20.0,90,0.00,,---,0.00,0.00,VWS V14.01,2013-02-09 08:50:00,
2013-02-09 02:55:00,25.2,22.7,30.14,SSE,161,14.0,23.0,90,0.00,,---,0.00,0.00,VWS V14.01,2013-02-09 08:55:00,
2013-02-09 03:00:00,25.2,22.7,30.15,SSE,165,21.0,23.0,90,0.00,,---,0.00,0.00,VWS V14.01,2013-02-09 09:00:00,
2013-02-09 03:05:00,25.2,22.7,30.14,SSE,159,15.0,23.0,90,0.00,,---,0.00,0.00,VWS V14.01,2013-02-09 09:05:00,
2013-02-09 03:10:00,25.1,22.6,30.14,SSE,151,16.0,23.0,90,0.00,,---,0.00,0.00,VWS V14.01,2013-02-09 09:10:00,
2013-02-09 03:15:00,25.0,22.5,30.14,SE,142,21.0,26.0,90,0.00,,---,0.00,0.00,VWS V14.01,2013-02-09 09:15:00,
2013-02-09 03:20:00,25.0,22.5,30.14,SSE,152,18.0,19.0,90,0.00,,---,0.00,0.00,VWS V14.01,2013-02-09 09:20:00,
2013-02-09 03:25:00,25.0,22.5,30.15,SSE,160,16.0,23.0,90,0.00,,---,0.00,0.00,VWS V14.01,2013-02-09 09:25:00,
2013-02-09 03:30:00,25.0,22.5,30.15,SSE,156,10.0,23.0,90,0.00,,---,0.00,0.00,VWS V14.01,2013-02-09 09:30:00,
2013-02-09 03:35:00,24.9,22.4,30.15,SSE,149,14.0,18.0,90,0.00,,---,0.00,0.00,VWS V14.01,2013-02-09 09:35:00,
2013-02-09 03:40:00,25.0,22.5,30.15,SSE,157,13.0,20.0,90,0.00,,---,0.00,0.00,VWS V14.01,2013-02-09 09:40:00,
2013-02-09 03:45:00,25.0,22.5,30.14,SSE,161,15.0,21.0,90,0.00,,---,0.00,0.00,VWS V14.01,2013-02-09 09:45:00,
2013-02-09 03:50:00,24.9,22.4,30.13,SSE,163,14.0,14.0,90,0.00,,---,0.00,0.00,VWS V14.01,2013-02-09 09:50:00,
2013-02-09 03:55:00,24.9,22.4,30.14,SSE,148,13.0,17.0,90,0.00,,---,0.00,0.00,VWS V14.01,2013-02-09 09:55:00,
2013-02-09 04:00:00,24.8,22.3,30.13,SSE,151,13.0,17.0,90,0.00,,---,0.00,0.00,VWS V14.01,2013-02-09 10:00:00,
2013-02-09 04:05:00,24.8,22.5,30.13,SSE,157,15.0,18.0,91,0.00,,---,0.00,0.00,VWS V14.01,2013-02-09 10:05:00,
2013-02-09 04:10:00,24.8,22.5,30.13,SSE,148,20.0,20.0,91,0.00,,---,0.00,0.00,VWS V14.01,2013-02-09 10:10:00,
2013-02-09 04:15:00,24.8,22.5,30.12,SSE,161,13.0,23.0,91,0.00,,---,0.00,0.00,VWS V14.01,2013-02-09 10:15:00,
2013-02-09 04:20:00,24.9,22.6,30.12,SSE,157,14.0,22.0,91,0.00,,---,0.00,0.00,VWS V14.01,2013-02-09 10:20:00,
2013-02-09 04:25:00,24.9,22.6,30.12,SSE,159,23.0,24.0,91,0.00,,---,0.00,0.00,VWS V14.01,2013-02-09 10:25:00,
2013-02-09 04:30:00,24.9,22.6,30.11,SSE,151,18.0,24.0,91,0.00,,---,0.00,0.00,VWS V14.01,2013-02-09 10:30:00,
2013-02-09 04:35:00,24.9,22.4,30.11,SSE,156,18.0,23.0,90,0.00,,---,0.00,0.00,VWS V14.01,2013-02-09 10:35:00,
2013-02-09 04:40:00,24.9,22.4,30.11,SSE,147,20.0,23.0,90,0.00,,---,0.00,0.00,VWS V14.01,2013-02-09 10:40:00,
2013-02-09 04:45:00,24.9,22.6,30.12,South,181,15.0,25.0,91,0.00,,---,0.00,0.00,VWS V14.01,2013-02-09 10:45:00,
2013-02-09 04:50:00,24.9,22.4,30.11,SSE,155,20.0,21.0,90,0.00,,---,0.00,0.00,VWS V14.01,2013-02-09 10:50:00,
2013-02-09 04:55:00,24.9,22.4,30.11,SSE,155,18.0,22.0,90,0.00,,---,0.00,0.00,VWS V14.01,2013-02-09 10:55:00,
2013-02-09 05:00:00,24.9,22.6,30.11,SSE,157,21.0,22.0,91,0.00,,---,0.00,0.00,VWS V14.01,2013-02-09 11:00:00,
2013-02-09 05:05:00,24.9,22.6,30.11,SSE,148,13.0,20.0,91,0.00,,---,0.00,0.00,VWS V14.01,2013-02-09 11:05:00,
2013-02-09 05:10:00,24.9,22.6,30.11,SSE,153,16.0,22.0,91,0.00,,---,0.00,0.00,VWS V14.01,2013-02-09 11:10:00,
2013-02-09 05:15:00,25.0,22.8,30.11,SSE,163,12.0,22.0,91,0.00,,---,0.00,0.00,VWS V14.01,2013-02-09 11:15:00,
2013-02-09 05:20:00,25.0,22.5,30.11,SSE,148,14.0,21.0,90,0.00,,---,0.00,0.00,VWS V14.01,2013-02-09 11:20:00,
2013-02-09 05:25:00,25.0,22.5,30.11,SSE,149,20.0,21.0,90,0.00,,---,0.00,0.00,VWS V14.01,2013-02-09 11:25:00,
2013-02-09 05:30:00,24.9,22.4,30.10,SSE,150,23.0,24.0,90,0.00,,---,0.00,0.00,VWS V14.01,2013-02-09 11:30:00,
2013-02-09 05:35:00,25.0,22.8,30.10,SSE,150,21.0,24.0,91,0.00,,---,0.00,0.00,VWS V14.01,2013-02-09 11:35:00,
2013-02-09 05:40:00,25.1,22.6,30.10,SSE,155,17.0,24.0,90,0.00,,---,0.00,0.00,VWS V14.01,2013-02-09 11:40:00,
2013-02-09 05:45:00,25.1,22.6,30.10,SE,146,14.0,24.0,90,0.00,,---,0.00,0.00,VWS V14.01,2013-02-09 11:45:00,
2013-02-09 05:50:00,25.1,22.6,30.10,SSE,148,16.0,22.0,90,0.00,,---,0.00,0.00,VWS V14.01,2013-02-09 11:50:00,
2013-02-09 05:55:00,25.1,22.6,30.10,SSE,153,20.0,22.0,90,0.00,,---,0.00,0.00,VWS V14.01,2013-02-09 11:55:00,
2013-02-09 06:00:00,25.1,22.6,30.09,SSE,153,18.0,22.0,90,0.00,,---,0.00,0.00,VWS V14.01,2013-02-09 12:00:00,
2013-02-09 06:05:00,25.1,22.6,30.09,SSE,167,18.0,24.0,90,0.00,,---,0.00,0.00,VWS V14.01,2013-02-09 12:05:00,
2013-02-09 06:10:00,25.2,22.7,30.09,SSE,163,20.0,24.0,90,0.00,,---,0.00,0.00,VWS V14.01,2013-02-09 12:10:00,
2013-02-09 06:15:00,25.2,22.7,30.09,SSE,164,16.0,26.0,90,0.00,,---,0.00,0.00,VWS V14.01,2013-02-09 12:15:00,
2013-02-09 06:20:00,25.2,22.7,30.09,SE,146,19.0,24.0,90,0.00,,---,0.00,0.00,VWS V14.01,2013-02-09 12:20:00,
2013-02-09 06:25:00,25.2,22.7,30.09,SSE,149,16.0,24.0,90,0.00,,---,0.00,0.00,VWS V14.01,2013-02-09 12:25:00,
2013-02-09 06:30:00,25.2,22.7,30.09,SSE,159,14.0,27.0,90,0.00,,---,0.00,0.00,VWS V14.01,2013-02-09 12:30:00,
2013-02-09 06:35:00,25.3,22.5,30.09,SSE,153,19.0,22.0,89,0.00,,---,0.00,0.00,VWS V14.01,2013-02-09 12:35:00,
2013-02-09 06:40:00,25.3,22.5,30.09,South,175,18.0,22.0,89,0.00,,---,0.00,0.00,VWS V14.01,2013-02-09 12:40:00,
2013-02-09 06:45:00,25.3,22.5,30.09,SSE,149,23.0,26.0,89,0.00,,---,0.00,0.00,VWS V14.01,2013-02-09 12:45:00,
2013-02-09 06:50:00,25.4,22.6,30.09,SSE,150,15.0,20.0,89,0.00,,---,0.00,0.00,VWS V14.01,2013-02-09 12:50:00,
2013-02-09 06:55:00,25.4,22.6,30.09,SSE,159,13.0,23.0,89,0.00,,---,0.00,0.00,VWS V14.01,2013-02-09 12:55:00,
2013-02-09 07:00:00,25.4,22.6,30.10,SSE,158,17.0,23.0,89,0.00,,---,0.00,0.00,VWS V14.01,2013-02-09 13:00:00,
2013-02-09 07:05:00,25.5,22.7,30.10,SSE,162,15.0,21.0,89,0.00,,---,0.00,0.00,VWS V14.01,2013-02-09 13:05:00,
2013-02-09 07:10:00,25.5,22.7,30.10,SSE,149,15.0,21.0,89,0.00,,---,0.00,0.00,VWS V14.01,2013-02-09 13:10:00,
2013-02-09 07:16:00,25.6,22.8,30.10,South,169,13.0,21.0,89,0.00,,---,0.00,0.00,VWS V14.01,2013-02-09 13:16:00,
2013-02-09 07:21:00,25.6,22.8,30.10,South,173,19.0,23.0,89,0.00,,---,0.00,0.00,VWS V14.01,2013-02-09 13:21:00,
2013-02-09 07:26:00,25.6,22.8,30.10,SSE,163,19.0,23.0,89,0.00,,---,0.00,0.00,VWS V14.01,2013-02-09 13:26:00,
2013-02-09 07:31:00,25.6,22.8,30.10,South,178,18.0,23.0,89,0.00,,---,0.00,0.00,VWS V14.01,2013-02-09 13:31:00,
2013-02-09 07:36:00,25.6,22.8,30.10,SSE,163,14.0,23.0,89,0.00,,---,0.00,5.00,VWS V14.01,2013-02-09 13:36:00,
2013-02-09 07:41:00,25.6,22.8,30.09,SSE,159,16.0,23.0,89,0.00,,---,0.00,5.00,VWS V14.01,2013-02-09 13:41:00,
2013-02-09 07:46:00,25.7,22.9,30.10,South,171,16.0,23.0,89,0.00,,---,0.00,9.00,VWS V14.01,2013-02-09 13:46:00,
2013-02-09 07:51:00,25.7,22.9,30.10,SSE,167,21.0,28.0,89,0.00,,---,0.00,11.00,VWS V14.01,2013-02-09 13:51:00,
2013-02-09 07:56:00,25.8,23.0,30.10,South,180,15.0,28.0,89,0.00,,---,0.00,14.00,VWS V14.01,2013-02-09 13:56:00,
2013-02-09 08:01:00,25.8,23.0,30.11,South,187,22.0,28.0,89,0.00,,---,0.00,18.00,VWS V14.01,2013-02-09 14:01:00,
2013-02-09 08:06:00,25.8,23.0,30.10,South,182,19.0,20.0,89,0.00,,---,0.00,21.00,VWS V14.01,2013-02-09 14:06:00,
2013-02-09 08:11:00,25.9,23.1,30.11,South,178,23.0,23.0,89,0.00,,---,0.00,23.00,VWS V14.01,2013-02-09 14:11:00,
2013-02-09 08:16:00,26.0,23.2,30.11,SSE,168,16.0,23.0,89,0.00,,---,0.00,25.00,VWS V14.01,2013-02-09 14:16:00,
2013-02-09 08:21:00,26.0,23.2,30.11,South,172,19.0,25.0,89,0.00,,---,0.00,26.00,VWS V14.01,2013-02-09 14:21:00,
2013-02-09 08:26:00,26.1,23.3,30.10,South,172,21.0,26.0,89,0.00,,---,0.00,25.00,VWS V14.01,2013-02-09 14:26:00,
2013-02-09 08:31:00,26.1,23.3,30.10,South,178,12.0,26.0,89,0.00,,---,0.00,26.00,VWS V14.01,2013-02-09 14:31:00,
2013-02-09 08:36:00,26.2,23.4,30.10,SSE,161,16.0,19.0,89,0.00,,---,0.00,25.00,VWS V14.01,2013-02-09 14:36:00,
2013-02-09 08:41:00,26.2,23.4,30.10,South,171,12.0,21.0,89,0.00,,---,0.00,25.00,VWS V14.01,2013-02-09 14:41:00,
2013-02-09 08:46:00,26.2,23.4,30.10,South,175,18.0,25.0,89,0.00,,---,0.00,33.00,VWS V14.01,2013-02-09 14:46:00,
2013-02-09 08:51:00,26.3,23.5,30.10,SSE,167,11.0,19.0,89,0.00,,---,0.00,49.00,VWS V14.01,2013-02-09 14:51:00,
2013-02-09 08:56:00,26.3,23.5,30.10,SSE,168,13.0,19.0,89,0.00,,---,0.00,72.00,VWS V14.01,2013-02-09 14:56:00,
2013-02-09 09:01:00,26.5,23.7,30.10,SSE,164,16.0,19.0,89,0.00,,---,0.00,74.00,VWS V14.01,2013-02-09 15:01:00,
2013-02-09 09:06:00,26.6,23.8,30.10,SSE,161,10.0,17.0,89,0.00,,---,0.00,76.00,VWS V14.01,2013-02-09 15:06:00,
2013-02-09 09:11:00,26.6,23.8,30.10,SSE,167,12.0,19.0,89,0.00,,---,0.00,83.00,VWS V14.01,2013-02-09 15:11:00,
2013-02-09 09:16:00,26.7,23.9,30.09,SSE,155,15.0,19.0,89,0.00,,---,0.00,81.00,VWS V14.01,2013-02-09 15:16:00,
2013-02-09 09:21:00,26.8,24.0,30.09,SSE,161,11.0,15.0,89,0.00,,---,0.00,91.00,VWS V14.01,2013-02-09 15:21:00,
2013-02-09 09:26:00,26.9,24.4,30.09,SSE,167,12.0,18.0,90,0.00,,---,0.00,100.00,VWS V14.01,2013-02-09 15:26:00,
2013-02-09 09:31:00,27.0,24.2,30.09,SSE,159,10.0,18.0,89,0.00,,---,0.00,97.00,VWS V14.01,2013-02-09 15:31:00,
2013-02-09 09:36:00,27.0,24.5,30.09,SSE,156,20.0,20.0,90,0.00,,---,0.00,95.00,VWS V14.01,2013-02-09 15:36:00,
2013-02-09 09:41:00,27.1,24.6,30.09,South,183,17.0,20.0,90,0.00,,---,0.00,98.00,VWS V14.01,2013-02-09 15:41:00,
2013-02-09 09:46:00,27.2,24.7,30.09,SSE,161,12.0,20.0,90,0.00,,---,0.00,100.00,VWS V14.01,2013-02-09 15:46:00,
2013-02-09 09:51:00,27.3,24.8,30.08,SSE,163,10.0,16.0,90,0.00,,---,0.00,104.00,VWS V14.01,2013-02-09 15:51:00,
2013-02-09 09:56:00,27.4,24.9,30.09,SSE,163,12.0,18.0,90,0.00,,---,0.00,109.00,VWS V14.01,2013-02-09 15:56:00,
2013-02-09 10:01:00,27.6,25.1,30.09,SSE,163,11.0,18.0,90,0.00,,---,0.00,111.00,VWS V14.01,2013-02-09 16:01:00,
2013-02-09 10:06:00,27.7,25.2,30.09,SSE,166,14.0,20.0,90,0.00,,---,0.00,118.00,VWS V14.01,2013-02-09 16:06:00,
2013-02-09 10:11:00,27.8,25.2,30.08,SSE,158,13.0,20.0,90,0.00,,---,0.00,125.00,VWS V14.01,2013-02-09 16:11:00,
2013-02-09 10:16:00,27.9,25.4,30.08,South,180,9.0,20.0,90,0.00,,---,0.00,135.00,VWS V14.01,2013-02-09 16:16:00,
2013-02-09 10:21:00,28.0,25.5,30.08,SSE,163,11.0,21.0,90,0.00,,---,0.00,148.00,VWS V14.01,2013-02-09 16:21:00,
2013-02-09 10:26:00,28.1,25.5,30.08,South,182,17.0,24.0,90,0.00,,---,0.00,151.00,VWS V14.01,2013-02-09 16:26:00,
2013-02-09 10:31:00,28.1,25.5,30.08,SSE,164,15.0,24.0,90,0.00,,---,0.00,162.00,VWS V14.01,2013-02-09 16:31:00,
2013-02-09 10:36:00,28.2,25.6,30.08,SSE,159,15.0,22.0,90,0.00,,---,0.00,174.00,VWS V14.01,2013-02-09 16:36:00,
2013-02-09 10:41:00,28.3,25.8,30.08,South,171,13.0,22.0,90,0.00,,---,0.00,171.00,VWS V14.01,2013-02-09 16:41:00,
2013-02-09 10:46:00,28.4,25.9,30.08,SSE,164,18.0,22.0,90,0.00,,---,0.00,172.00,VWS V14.01,2013-02-09 16:46:00,
2013-02-09 10:51:00,28.4,25.9,30.08,SSE,165,13.0,19.0,90,0.00,,---,0.00,165.00,VWS V14.01,2013-02-09 16:51:00,
2013-02-09 10:56:00,28.5,26.0,30.08,South,170,14.0,22.0,90,0.00,,---,0.00,171.00,VWS V14.01,2013-02-09 16:56:00,
2013-02-09 11:01:00,28.6,26.0,30.08,SSE,163,19.0,22.0,90,0.00,,---,0.00,167.00,VWS V14.01,2013-02-09 17:01:00,
2013-02-09 11:06:00,28.7,26.1,30.07,South,169,15.0,22.0,90,0.00,,---,0.00,186.00,VWS V14.01,2013-02-09 17:06:00,
2013-02-09 11:11:00,28.8,26.2,30.07,SSE,164,12.0,22.0,90,0.00,,---,0.00,195.00,VWS V14.01,2013-02-09 17:11:00,
2013-02-09 11:16:00,28.9,26.3,30.07,SSE,166,15.0,23.0,90,0.00,,---,0.00,192.00,VWS V14.01,2013-02-09 17:16:00,
2013-02-09 11:21:00,29.1,26.5,30.07,SSE,163,18.0,18.0,90,0.00,,---,0.00,209.00,VWS V14.01,2013-02-09 17:21:00,
2013-02-09 11:26:00,29.2,26.6,30.07,SSE,163,17.0,22.0,90,0.00,,---,0.00,199.00,VWS V14.01,2013-02-09 17:26:00,
2013-02-09 11:31:00,29.3,26.7,30.06,South,174,17.0,26.0,90,0.00,,---,0.00,195.00,VWS V14.01,2013-02-09 17:31:00,
2013-02-09 11:36:00,29.4,26.8,30.06,South,171,15.0,20.0,90,0.00,,---,0.00,197.00,VWS V14.01,2013-02-09 17:36:00,
2013-02-09 11:41:00,29.6,27.0,30.06,SSE,155,13.0,22.0,90,0.00,,---,0.00,188.00,VWS V14.01,2013-02-09 17:41:00,
2013-02-09 11:46:00,29.8,27.2,30.06,South,180,14.0,22.0,90,0.00,,---,0.00,193.00,VWS V14.01,2013-02-09 17:46:00,
2013-02-09 11:51:00,29.8,27.2,30.06,SE,145,17.0,21.0,90,0.00,,---,0.00,202.00,VWS V14.01,2013-02-09 17:51:00,
2013-02-09 11:56:00,29.9,27.3,30.05,SSE,166,16.0,21.0,90,0.00,,---,0.00,209.00,VWS V14.01,2013-02-09 17:56:00,
2013-02-09 12:01:00,30.1,27.5,30.05,SSE,166,17.0,21.0,90,0.00,,---,0.00,211.00,VWS V14.01,2013-02-09 18:01:00,
2013-02-09 12:06:00,30.2,27.6,30.05,SSE,154,12.0,16.0,90,0.00,,---,0.00,190.00,VWS V14.01,2013-02-09 18:06:00,
2013-02-09 12:11:00,30.3,27.5,30.04,SSE,155,14.0,22.0,89,0.00,,---,0.00,199.00,VWS V14.01,2013-02-09 18:11:00,
2013-02-09 12:16:00,30.4,27.5,30.04,SSE,150,15.0,22.0,89,0.00,,---,0.00,199.00,VWS V14.01,2013-02-09 18:16:00,
2013-02-09 12:21:00,30.5,27.6,30.03,South,187,13.0,19.0,89,0.00,,---,0.00,207.00,VWS V14.01,2013-02-09 18:21:00,
2013-02-09 12:26:00,30.6,27.8,30.03,South,169,15.0,20.0,89,0.00,,---,0.00,206.00,VWS V14.01,2013-02-09 18:26:00,
2013-02-09 12:31:00,30.7,27.9,30.03,South,169,12.0,20.0,89,0.00,,---,0.00,186.00,VWS V14.01,2013-02-09 18:31:00,
2013-02-09 12:36:00,30.7,27.9,30.03,South,172,14.0,17.0,89,0.00,,---,0.00,179.00,VWS V14.01,2013-02-09 18:36:00,
2013-02-09 12:41:00,30.8,28.0,30.03,SSE,156,13.0,19.0,89,0.00,,---,0.00,197.00,VWS V14.01,2013-02-09 18:41:00,
2013-02-09 12:46:00,31.0,28.1,30.02,SSE,164,11.0,19.0,89,0.00,,---,0.00,200.00,VWS V14.01,2013-02-09 18:46:00,
2013-02-09 12:51:00,31.1,28.2,30.02,South,169,11.0,18.0,89,0.00,,---,0.00,190.00,VWS V14.01,2013-02-09 18:51:00,
2013-02-09 12:56:00,31.2,28.3,30.02,SSE,153,13.0,21.0,89,0.00,,---,0.00,193.00,VWS V14.01,2013-02-09 18:56:00,
2013-02-09 13:01:00,31.4,28.5,30.02,SSE,163,14.0,21.0,89,0.00,,---,0.00,185.00,VWS V14.01,2013-02-09 19:01:00,
2013-02-09 13:06:00,31.4,28.5,30.02,SSE,167,11.0,18.0,89,0.00,,---,0.00,183.00,VWS V14.01,2013-02-09 19:06:00,
2013-02-09 13:11:00,31.5,28.4,30.01,SE,142,16.0,18.0,88,0.00,,---,0.00,188.00,VWS V14.01,2013-02-09 19:11:00,
2013-02-09 13:16:00,31.6,28.5,30.01,SSE,157,13.0,18.0,88,0.00,,---,0.00,181.00,VWS V14.01,2013-02-09 19:16:00,
2013-02-09 13:21:00,31.6,28.5,30.01,SSE,160,12.0,18.0,88,0.00,,---,0.00,195.00,VWS V14.01,2013-02-09 19:21:00,
2013-02-09 13:26:00,31.8,28.7,30.00,South,175,14.0,18.0,88,0.00,,---,0.00,207.00,VWS V14.01,2013-02-09 19:26:00,
2013-02-09 13:31:00,31.9,28.8,30.00,SSE,155,13.0,18.0,88,0.00,,---,0.00,213.00,VWS V14.01,2013-02-09 19:31:00,
2013-02-09 13:36:00,32.0,28.9,30.00,SSE,149,13.0,15.0,88,0.00,,---,0.00,206.00,VWS V14.01,2013-02-09 19:36:00,
2013-02-09 13:41:00,32.1,29.0,30.00,SE,140,13.0,18.0,88,0.00,,---,0.00,204.00,VWS V14.01,2013-02-09 19:41:00,
2013-02-09 13:46:00,32.2,29.0,29.99,SSE,153,19.0,20.0,88,0.00,,---,0.00,209.00,VWS V14.01,2013-02-09 19:46:00,
2013-02-09 13:51:00,32.3,29.1,29.99,SSE,155,13.0,18.0,88,0.00,,---,0.00,195.00,VWS V14.01,2013-02-09 19:51:00,
2013-02-09 13:56:00,32.3,29.1,29.98,SSE,167,16.0,19.0,88,0.00,,---,0.00,202.00,VWS V14.01,2013-02-09 19:56:00,
2013-02-09 14:01:00,32.4,29.2,29.98,SSE,165,10.0,19.0,88,0.00,,---,0.00,199.00,VWS V14.01,2013-02-09 20:01:00,
2013-02-09 14:06:00,32.5,29.4,29.98,SSE,148,10.0,15.0,88,0.00,,---,0.00,188.00,VWS V14.01,2013-02-09 20:06:00,
2013-02-09 14:11:00,32.6,29.5,29.98,South,183,13.0,15.0,88,0.00,,---,0.00,190.00,VWS V14.01,2013-02-09 20:11:00,
2013-02-09 14:16:00,32.6,29.2,29.98,SSE,154,13.0,16.0,87,0.00,,---,0.00,172.00,VWS V14.01,2013-02-09 20:16:00,
2013-02-09 14:21:00,32.7,29.3,29.98,SSE,157,10.0,16.0,87,0.00,,---,0.00,174.00,VWS V14.01,2013-02-09 20:21:00,
2013-02-09 14:26:00,32.7,29.3,29.97,SSE,153,11.0,16.0,87,0.00,,---,0.00,158.00,VWS V14.01,2013-02-09 20:26:00,
2013-02-09 14:31:00,32.8,29.4,29.97,SSE,158,13.0,16.0,87,0.00,,---,0.00,163.00,VWS V14.01,2013-02-09 20:31:00,
2013-02-09 14:36:00,32.8,29.4,29.97,SSE,147,11.0,16.0,87,0.00,,---,0.00,153.00,VWS V14.01,2013-02-09 20:36:00,
2013-02-09 14:41:00,32.8,29.4,29.97,SSE,157,12.0,16.0,87,0.00,,---,0.00,137.00,VWS V14.01,2013-02-09 20:41:00,
2013-02-09 14:46:00,32.8,29.4,29.97,ESE,122,13.0,17.0,87,0.00,,---,0.00,130.00,VWS V14.01,2013-02-09 20:46:00,
2013-02-09 14:51:00,32.9,29.7,29.97,SE,133,10.0,14.0,88,0.00,,---,0.00,125.00,VWS V14.01,2013-02-09 20:51:00,
2013-02-09 14:56:00,32.9,29.5,29.96,SE,146,11.0,17.0,87,0.00,,---,0.00,120.00,VWS V14.01,2013-02-09 20:56:00,
2013-02-09 15:01:00,32.9,29.5,29.96,SSE,152,13.0,17.0,87,0.00,,---,0.00,114.00,VWS V14.01,2013-02-09 21:01:00,
2013-02-09 15:06:00,32.9,29.7,29.96,SSE,157,15.0,15.0,88,0.00,,---,0.00,107.00,VWS V14.01,2013-02-09 21:06:00,
2013-02-09 15:11:00,33.0,29.8,29.96,SE,134,9.0,17.0,88,0.00,,---,0.00,109.00,VWS V14.01,2013-02-09 21:11:00,
2013-02-09 15:16:00,33.0,29.8,29.96,SSE,150,10.0,17.0,88,0.00,,---,0.00,111.00,VWS V14.01,2013-02-09 21:16:00,
2013-02-09 15:21:00,33.0,29.8,29.95,SE,134,12.0,19.0,88,0.00,,---,0.00,116.00,VWS V14.01,2013-02-09 21:21:00,
2013-02-09 15:26:00,33.1,29.7,29.95,SE,132,12.0,19.0,87,0.00,,---,0.00,114.00,VWS V14.01,2013-02-09 21:26:00,
2013-02-09 15:31:00,33.2,29.8,29.95,SE,129,11.0,19.0,87,0.00,,---,0.00,111.00,VWS V14.01,2013-02-09 21:31:00,
2013-02-09 15:36:00,33.2,29.8,29.95,SE,130,12.0,17.0,87,0.00,,---,0.00,88.00,VWS V14.01,2013-02-09 21:36:00,
2013-02-09 15:41:00,33.0,29.6,29.95,SE,133,7.0,17.0,87,0.00,,---,0.00,86.00,VWS V14.01,2013-02-09 21:41:00,
2013-02-09 15:46:00,32.9,29.5,29.95,ESE,122,10.0,17.0,87,0.00,,---,0.00,90.00,VWS V14.01,2013-02-09 21:46:00,
2013-02-09 15:51:00,32.9,29.7,29.95,ESE,115,10.0,12.0,88,0.00,,---,0.00,93.00,VWS V14.01,2013-02-09 21:51:00,
2013-02-09 15:56:00,32.9,29.7,29.94,SE,125,10.0,19.0,88,0.00,,---,0.00,91.00,VWS V14.01,2013-02-09 21:56:00,
2013-02-09 16:01:00,32.8,29.6,29.94,SE,136,8.0,19.0,88,0.00,,---,0.00,86.00,VWS V14.01,2013-02-09 22:01:00,
2013-02-09 16:06:00,32.8,29.6,29.94,SE,129,13.0,14.0,88,0.00,,---,0.00,86.00,VWS V14.01,2013-02-09 22:06:00,
2013-02-09 16:11:00,32.9,29.7,29.94,ESE,120,12.0,16.0,88,0.00,,---,0.00,77.00,VWS V14.01,2013-02-09 22:11:00,
2013-02-09 16:16:00,32.8,29.6,29.93,ESE,123,12.0,16.0,88,0.00,,---,0.00,74.00,VWS V14.01,2013-02-09 22:16:00,
2013-02-09 16:21:00,32.9,29.7,29.94,SE,126,13.0,15.0,88,0.00,,---,0.00,65.00,VWS V14.01,2013-02-09 22:21:00,
2013-02-09 16:26:00,32.9,29.7,29.93,ESE,122,12.0,16.0,88,0.00,,---,0.00,60.00,VWS V14.01,2013-02-09 22:26:00,
2013-02-09 16:31:00,32.9,29.7,29.93,SE,136,14.0,16.0,88,0.00,,---,0.00,56.00,VWS V14.01,2013-02-09 22:31:00,
2013-02-09 16:36:00,32.9,29.7,29.93,ESE,119,11.0,15.0,88,0.00,,---,0.00,54.00,VWS V14.01,2013-02-09 22:36:00,
2013-02-09 16:41:00,32.9,29.7,29.93,ESE,117,8.0,18.0,88,0.00,,---,0.00,47.00,VWS V14.01,2013-02-09 22:41:00,
2013-02-09 16:46:00,32.9,29.7,29.93,SE,126,10.0,18.0,88,0.00,,---,0.00,39.00,VWS V14.01,2013-02-09 22:46:00,
2013-02-09 16:51:00,32.9,29.7,29.93,SE,129,9.0,14.0,88,0.00,,---,0.00,39.00,VWS V14.01,2013-02-09 22:51:00,
2013-02-09 16:56:00,32.9,29.7,29.93,ESE,118,11.0,14.0,88,0.00,,---,0.00,33.00,VWS V14.01,2013-02-09 22:56:00,
2013-02-09 17:01:00,32.8,29.9,29.93,SE,130,10.0,15.0,89,0.00,,---,0.00,28.00,VWS V14.01,2013-02-09 23:01:00,
2013-02-09 17:06:00,32.8,29.9,29.92,ESE,122,10.0,15.0,89,0.00,,---,0.00,21.00,VWS V14.01,2013-02-09 23:06:00,
2013-02-09 17:11:00,32.8,29.9,29.92,ESE,107,9.0,15.0,89,0.00,,---,0.00,16.00,VWS V14.01,2013-02-09 23:11:00,
2013-02-09 17:16:00,32.6,29.7,29.92,ESE,119,10.0,15.0,89,0.00,,---,0.00,14.00,VWS V14.01,2013-02-09 23:16:00,
2013-02-09 17:21:00,32.6,29.7,29.92,ESE,121,11.0,16.0,89,0.00,,---,0.00,7.00,VWS V14.01,2013-02-09 23:21:00,
2013-02-09 17:26:00,32.6,29.7,29.92,ESE,115,11.0,16.0,89,0.00,,---,0.00,0.00,VWS V14.01,2013-02-09 23:26:00,
2013-02-09 17:31:00,32.6,29.7,29.92,SE,126,12.0,16.0,89,0.00,,---,0.00,0.00,VWS V14.01,2013-02-09 23:31:00,
2013-02-09 17:36:00,32.6,29.7,29.91,SE,125,13.0,16.0,89,0.00,,---,0.00,0.00,VWS V14.01,2013-02-09 23:36:00,
2013-02-09 17:41:00,32.6,29.7,29.92,ESE,115,11.0,16.0,89,0.00,,---,0.00,0.00,VWS V14.01,2013-02-09 23:41:00,
2013-02-09 17:46:00,32.6,29.7,29.91,ESE,121,9.0,16.0,89,0.00,,---,0.00,0.00,VWS V14.01,2013-02-09 23:46:00,
2013-02-09 17:51:00,32.6,29.7,29.91,ESE,115,13.0,15.0,89,0.00,,---,0.00,0.00,VWS V14.01,2013-02-09 23:51:00,
2013-02-09 17:56:00,32.7,29.8,29.91,ESE,122,11.0,15.0,89,0.00,,---,0.00,0.00,VWS V14.01,2013-02-09 23:56:00,
2013-02-09 18:01:00,32.7,29.8,29.92,ESE,119,10.0,16.0,89,0.00,,---,0.00,0.00,VWS V14.01,2013-02-10 00:01:00,
2013-02-09 18:06:00,32.7,29.8,29.92,SE,124,13.0,16.0,89,0.00,,---,0.00,0.00,VWS V14.01,2013-02-10 00:06:00,
2013-02-09 18:11:00,32.7,29.8,29.92,ESE,119,12.0,16.0,89,0.00,,---,0.00,0.00,VWS V14.01,2013-02-10 00:11:00,
2013-02-09 18:17:00,32.8,29.9,29.93,SE,128,11.0,17.0,89,0.00,,---,0.00,0.00,VWS V14.01,2013-02-10 00:17:00,
2013-02-09 18:22:00,32.8,29.9,29.93,ESE,119,10.0,14.0,89,0.00,,---,0.00,0.00,VWS V14.01,2013-02-10 00:22:00,
2013-02-09 18:27:00,32.8,29.9,29.93,SE,128,12.0,17.0,89,0.00,,---,0.00,0.00,VWS V14.01,2013-02-10 00:27:00,
2013-02-09 18:32:00,32.8,29.9,29.94,SE,128,13.0,18.0,89,0.00,,---,0.00,0.00,VWS V14.01,2013-02-10 00:32:00,
2013-02-09 18:37:00,32.8,29.9,29.94,SE,125,9.0,15.0,89,0.00,,---,0.00,0.00,VWS V14.01,2013-02-10 00:37:00,
2013-02-09 18:42:00,32.8,29.9,29.94,SE,132,9.0,16.0,89,0.00,,---,0.00,0.00,VWS V14.01,2013-02-10 00:42:00,
2013-02-09 18:47:00,32.8,29.9,29.94,SE,129,12.0,18.0,89,0.00,,---,0.00,0.00,VWS V14.01,2013-02-10 00:47:00,
2013-02-09 18:52:00,32.8,29.9,29.93,SE,128,15.0,20.0,89,0.00,,---,0.00,0.00,VWS V14.01,2013-02-10 00:52:00,
2013-02-09 18:57:00,32.8,29.9,29.93,SE,127,13.0,20.0,89,0.00,,---,0.00,0.00,VWS V14.01,2013-02-10 00:57:00,
2013-02-09 19:02:00,32.8,29.9,29.93,ESE,111,13.0,20.0,89,0.00,,---,0.00,0.00,VWS V14.01,2013-02-10 01:02:00,
2013-02-09 19:07:00,32.8,29.9,29.92,SE,129,14.0,18.0,89,0.00,,---,0.00,0.00,VWS V14.01,2013-02-10 01:07:00,
2013-02-09 19:12:00,32.8,29.9,29.92,ESE,119,12.0,18.0,89,0.00,,---,0.00,0.00,VWS V14.01,2013-02-10 01:12:00,
2013-02-09 19:17:00,32.7,29.8,29.92,SE,133,10.0,18.0,89,0.00,,---,0.00,0.00,VWS V14.01,2013-02-10 01:17:00,
2013-02-09 19:22:00,32.6,29.7,29.92,SE,128,16.0,17.0,89,0.00,,---,0.00,0.00,VWS V14.01,2013-02-10 01:22:00,
2013-02-09 19:27:00,32.6,29.7,29.91,SE,129,13.0,17.0,89,0.00,,---,0.00,0.00,VWS V14.01,2013-02-10 01:27:00,
2013-02-09 19:32:00,32.5,29.6,29.91,SE,131,15.0,18.0,89,0.00,,---,0.00,0.00,VWS V14.01,2013-02-10 01:32:00,
2013-02-09 19:37:00,32.5,29.6,29.92,SE,134,14.0,15.0,89,0.00,,---,0.00,0.00,VWS V14.01,2013-02-10 01:37:00,
2013-02-09 19:42:00,32.4,29.5,29.92,SE,136,12.0,18.0,89,0.00,,---,0.00,0.00,VWS V14.01,2013-02-10 01:42:00,
2013-02-09 19:47:00,32.3,29.4,29.92,SE,136,14.0,18.0,89,0.00,,---,0.00,0.00,VWS V14.01,2013-02-10 01:47:00,
2013-02-09 19:52:00,32.2,29.3,29.93,SE,137,12.0,17.0,89,0.00,,---,0.00,0.00,VWS V14.01,2013-02-10 01:52:00,
2013-02-09 19:57:00,32.1,29.5,29.94,SE,132,11.0,18.0,90,0.00,,---,0.00,0.00,VWS V14.01,2013-02-10 01:57:00,
2013-02-09 20:02:00,32.1,29.5,29.93,SE,130,15.0,20.0,90,0.00,,---,0.00,0.00,VWS V14.01,2013-02-10 02:02:00,
2013-02-09 20:07:00,32.1,29.5,29.93,SE,145,12.0,17.0,90,0.00,,---,0.00,0.00,VWS V14.01,2013-02-10 02:07:00,
2013-02-09 20:12:00,31.9,29.3,29.94,SSE,148,12.0,17.0,90,0.00,,---,0.00,0.00,VWS V14.01,2013-02-10 02:12:00,
2013-02-09 20:17:00,31.9,29.3,29.94,SE,140,9.0,17.0,90,0.00,,---,0.00,0.00,VWS V14.01,2013-02-10 02:17:00,
2013-02-09 20:22:00,31.9,29.3,29.93,SE,134,13.0,17.0,90,0.00,,---,0.00,0.00,VWS V14.01,2013-02-10 02:22:00,
2013-02-09 20:27:00,31.8,29.2,29.93,SE,139,19.0,19.0,90,0.00,,---,0.00,0.00,VWS V14.01,2013-02-10 02:27:00,
2013-02-09 20:32:00,31.7,28.8,29.93,SE,133,12.0,21.0,89,0.00,,---,0.00,0.00,VWS V14.01,2013-02-10 02:32:00,
2013-02-09 20:37:00,31.6,28.7,29.92,SE,146,13.0,20.0,89,0.00,,---,0.00,0.00,VWS V14.01,2013-02-10 02:37:00,
2013-02-09 20:42:00,31.5,28.6,29.92,SE,130,12.0,20.0,89,0.00,,---,0.00,0.00,VWS V14.01,2013-02-10 02:42:00,
2013-02-09 20:47:00,31.5,28.9,29.92,SE,146,16.0,20.0,90,0.00,,---,0.00,0.00,VWS V14.01,2013-02-10 02:47:00,
2013-02-09 20:52:00,31.4,28.8,29.91,SE,129,15.0,17.0,90,0.00,,---,0.00,0.00,VWS V14.01,2013-02-10 02:52:00,
2013-02-09 20:57:00,31.3,28.7,29.92,ESE,122,11.0,17.0,90,0.00,,---,0.00,0.00,VWS V14.01,2013-02-10 02:57:00,
2013-02-09 21:02:00,31.2,28.6,29.91,SE,136,14.0,17.0,90,0.00,,---,0.00,0.00,VWS V14.01,2013-02-10 03:02:00,
2013-02-09 21:07:00,31.1,28.5,29.92,SE,146,12.0,18.0,90,0.00,,---,0.00,0.00,VWS V14.01,2013-02-10 03:07:00,
2013-02-09 21:12:00,31.0,28.4,29.92,SSE,148,13.0,18.0,90,0.00,,---,0.00,0.00,VWS V14.01,2013-02-10 03:12:00,
2013-02-09 21:17:00,31.0,28.4,29.92,SE,144,12.0,19.0,90,0.00,,---,0.00,0.00,VWS V14.01,2013-02-10 03:17:00,
2013-02-09 21:22:00,31.0,28.1,29.92,SE,138,20.0,20.0,89,0.00,,---,0.00,0.00,VWS V14.01,2013-02-10 03:22:00,
2013-02-09 21:27:00,30.9,28.0,29.91,SE,124,16.0,20.0,89,0.00,,---,0.00,0.00,VWS V14.01,2013-02-10 03:27:00,
2013-02-09 21:32:00,30.9,28.0,29.92,SE,137,17.0,20.0,89,0.00,,---,0.00,0.00,VWS V14.01,2013-02-10 03:32:00,
2013-02-09 21:37:00,30.8,28.0,29.92,SE,146,15.0,17.0,89,0.00,,---,0.00,0.00,VWS V14.01,2013-02-10 03:37:00,
2013-02-09 21:42:00,30.7,27.9,29.91,SE,138,15.0,20.0,89,0.00,,---,0.00,0.00,VWS V14.01,2013-02-10 03:42:00,
2013-02-09 21:47:00,30.6,27.8,29.91,SE,138,17.0,20.0,89,0.00,,---,0.00,0.00,VWS V14.01,2013-02-10 03:47:00,
2013-02-09 21:52:00,30.5,27.9,29.92,SE,132,12.0,21.0,90,0.00,,---,0.00,0.00,VWS V14.01,2013-02-10 03:52:00,
2013-02-09 21:57:00,30.5,27.9,29.92,SE,128,19.0,21.0,90,0.00,,---,0.00,0.00,VWS V14.01,2013-02-10 03:57:00,
2013-02-09 22:02:00,30.4,27.8,29.91,ESE,121,13.0,21.0,90,0.00,,---,0.00,0.00,VWS V14.01,2013-02-10 04:02:00,
2013-02-09 22:07:00,30.4,27.8,29.91,ESE,120,9.0,14.0,90,0.00,,---,0.00,0.00,VWS V14.01,2013-02-10 04:07:00,
2013-02-09 22:12:00,30.3,27.7,29.91,SE,132,9.0,14.0,90,0.00,,---,0.00,0.00,VWS V14.01,2013-02-10 04:12:00,
2013-02-09 22:17:00,30.2,27.6,29.90,SE,134,11.0,18.0,90,0.00,,---,0.00,0.00,VWS V14.01,2013-02-10 04:17:00,
2013-02-09 22:22:00,30.0,27.2,29.90,ESE,122,13.0,18.0,89,0.00,,---,0.00,0.00,VWS V14.01,2013-02-10 04:22:00,
2013-02-09 22:27:00,29.9,27.1,29.90,SE,130,15.0,18.0,89,0.00,,---,0.00,0.00,VWS V14.01,2013-02-10 04:27:00,
2013-02-09 22:32:00,29.9,27.1,29.90,SE,140,12.0,18.0,89,0.00,,---,0.00,0.00,VWS V14.01,2013-02-10 04:32:00,
2013-02-09 22:37:00,29.8,27.0,29.90,ESE,115,7.0,13.0,89,0.00,,---,0.00,0.00,VWS V14.01,2013-02-10 04:37:00,
2013-02-09 22:42:00,29.8,27.0,29.90,SE,128,14.0,17.0,89,0.00,,---,0.00,0.00,VWS V14.01,2013-02-10 04:42:00,
2013-02-09 22:47:00,29.8,27.0,29.89,SE,125,16.0,18.0,89,0.00,,---,0.00,0.00,VWS V14.01,2013-02-10 04:47:00,
2013-02-09 22:52:00,29.7,26.9,29.88,ESE,119,11.0,17.0,89,0.00,,---,0.00,0.00,VWS V14.01,2013-02-10 04:52:00,
2013-02-09 22:57:00,29.7,27.1,29.88,ESE,120,13.0,17.0,90,0.00,,---,0.00,0.00,VWS V14.01,2013-02-10 04:57:00,
2013-02-09 23:00:00,29.7,27.1,29.88,ESE,115,12.0,17.0,90,0.00,,---,0.00,0.00,VWS V14.01,2013-02-10 05:00:00,
2013-02-09 23:05:00,29.6,27.0,29.88,SE,125,11.0,15.0,90,0.00,,---,0.00,0.00,VWS V14.01,2013-02-10 05:05:00,
2013-02-09 23:10:00,29.5,26.9,29.89,ESE,121,11.0,17.0,90,0.00,,---,0.00,0.00,VWS V14.01,2013-02-10 05:10:00,
2013-02-09 23:15:00,29.4,26.8,29.88,SE,126,11.0,17.0,90,0.00,,---,0.00,0.00,VWS V14.01,2013-02-10 05:15:00,
2013-02-09 23:20:00,29.4,26.8,29.88,ESE,121,9.0,13.0,90,0.00,,---,0.00,0.00,VWS V14.01,2013-02-10 05:20:00,
2013-02-09 23:25:00,29.4,26.8,29.88,SE,126,13.0,14.0,90,0.00,,---,0.00,0.00,VWS V14.01,2013-02-10 05:25:00,
2013-02-09 23:30:00,29.3,26.7,29.88,ESE,113,13.0,17.0,90,0.00,,---,0.00,0.00,VWS V14.01,2013-02-10 05:30:00,
2013-02-09 23:35:00,29.3,26.7,29.88,ESE,114,11.0,14.0,90,0.00,,---,0.00,0.00,VWS V14.01,2013-02-10 05:35:00,
2013-02-09 23:40:00,29.3,26.7,29.88,ESE,117,9.0,14.0,90,0.00,,---,0.00,0.00,VWS V14.01,2013-02-10 05:40:00,
2013-02-09 23:45:00,29.3,26.7,29.88,ESE,118,14.0,14.0,90,0.00,,---,0.00,0.00,VWS V14.01,2013-02-10 05:45:00,
2013-02-09 23:50:00,29.3,26.7,29.87,ESE,112,10.0,14.0,90,0.00,,---,0.00,0.00,VWS V14.01,2013-02-10 05:50:00,
2013-02-09 23:55:00,29.3,26.7,29.87,ESE,114,7.0,14.0,90,0.00,,---,0.00,0.00,VWS V14.01,2013-02-10 05:55:00,